STARLINK-35162, 65613

Orbit data source: Space-Track

STARLINK-35162, 65613 is a payload satellite owned by SpaceX/Seattle (US) in SSO that was launched on Sat, 13 Sep 2025 UTC via an FALCON 9 launch vehicle from the Air Force Eastern Test Range (AFETR). Payload-class satellites include a variety of spacecraft equipped with specific instruments for various scientific and technological missions. These include communications satellites like Starlink; space stations such as the ISS; scientific satellites like the Hubble; Earth observation satellites from companies like Planet Labs, Umbra, and HawkEye 360; GPS; miniature CubeSats for education and research; and military/defense satellites.

Loading next visibility...
Identifier
65613, 2025-207X
Orbit
SSO
Country
Flag of USUS
Related business
Manufacturer
SpaceX/Seattle
Mission
Operational Commercial Communications
Bus & Motor
STARLINK V2MO, Unknown motor
Mass
575 kg wet, ~530 kg dry
Launch date (UTC)
2025-09-13 (9 months ago)
Launch vehicle
FALCON 9
Launch site
Air Force Eastern Test Range (AFETR)
Object type
Payload
Rocket body
Debris
Shape & HBR
Box + 2 Pan, 17.7 m
Radar Cross Section
36.964 m², Large (>1 m²)

Expand to show TLE details & history
Last TLE update: 15 hours ago

TLE from 15 hours ago
0 STARLINK-35162
1 65613U 25207X   26166.45246817  .00000341  00000-0  27631-4 0  9996
2 65613  97.3606 234.1333 0000699 107.0843 253.0461 15.05649353 42974
Epoch: 2026-06-15T10:51Z
TLE epoch observation values (Epoch: 2026-06-15T10:51:33.249Z)
Latitude
-0.00005°
Longitude
167.50612°
Altitude
552.727 km
Speed
7.585 km/s
True Right ascension
15h 36m 31s
True Declination
0° 00' 00"
Sunlit
Object was in full shadow at epoch
Visualization orbit readout
Latitude
Unknown
Longitude
Unknown
Altitude
Unknown
Speed
Unknown
Apparent Right ascension
Unknown
Apparent Declination
Unknown
Sunlit
N/A
Visualization observer readout
Local Sidereal Time
12:33:08
Azimuth
Unknown
Elevation
Unknown
Doppler factor
Unknown
Orbital elements
Apogee altitude
546.98 km
Perigee altitude
546.012 km
Semi-major axis
6,924.633 km
Eccentricity
0.00007
Inclination
97.3606°
RAAN
234.1333°
Arg. of periapsis
107.0843°
True anomaly
253.03844°
Mean anomaly
253.0461°
Eccentric anomaly
253.04227°
Mean motion
3.76659 °/min
Orbital period
95.58 mins
BSTAR
0.000027631
Loading maneuver chart data...
Computing Atmospheric mass density...
Loading historical data...
Loading historical data...
Loading historical data...
Loading historical data...
Loading historical data...
Loading historical data...
Loading historical data...

Documentation

Showing up to 5 results
|